Location: Normandy Village
(37.8755°N, 122.2655°W)
Time: 09:03:47
(UTC+00:00)

ATLAS 3B R/B - Visible Passes

Search period start: 06 December 2019 00:00
Search period end: 16 December 2019 00:00
Orbit: 1030 x 1165 km, 63.8° (Epoch: 02 December)

Date Brightness Start Highest point End Pass type
(mag) Time Alt. Az. Time Alt. Az. Time Alt. Az.
06 Dec 2.8 01:17:41 10° NNW 01:24:19 59° NE 01:31:08 10° SE visible
06 Dec 4.8 03:09:13 10° WNW 03:14:33 25° WSW 03:20:01 10° SSW visible
07 Dec 3.9 02:21:16 10° NW 02:27:36 44° WSW 02:34:05 10° S visible
08 Dec 3.0 01:33:45 10° NW 01:40:30 75° WSW 01:47:25 10° SSE visible
08 Dec 5.8 03:28:48 10° W 03:30:07 11° WSW 03:31:27 10° WSW visible
09 Dec 5.2 02:38:30 10° WNW 02:43:20 21° WSW 02:48:16 10° SSW visible
09 Dec 5.4 14:36:50 10° SSE 14:42:02 24° ESE 14:47:11 10° ENE visible
10 Dec 4.4 01:50:19 10° NW 01:56:25 37° WSW 02:02:40 10° S visible
10 Dec 6.0 13:52:33 10° SE 13:55:14 13° ESE 13:57:54 10° E visible
12 Dec 5.7 02:07:55 10° WNW 02:12:06 17° WSW 02:16:21 10° SW visible
12 Dec 4.8 14:05:11 10° SSE 14:10:49 29° ESE 14:16:23 10° NE visible
13 Dec 4.9 01:19:25 10° NW 01:25:13 31° WSW 01:31:09 10° S visible
13 Dec 5.6 13:20:11 10° SE 13:23:59 16° ESE 13:27:43 10° ENE visible
14 Dec 3.3 14:20:02 10° SSW 14:26:39 60° ESE 14:33:11 10° NE visible
15 Dec 5.9 01:37:34 10° WNW 01:40:51 14° WSW 01:44:11 10° SW visible
15 Dec 4.3 13:33:39 10° S 13:39:37 34° ESE 13:45:31 10° NE visible
